Weather History for Iron Mountain, MI

Change the Weather History Date:

Friday, January 18, 2013

  Actual Average Record
Temperature  
Mean Temperature 8 °F -  
Max Temperature 17 °F 25 °F 48 °F (1986)
Min Temperature 0 °F 3 °F -25 °F (1984)
Degree Days  
Heating Degree Days 56    
Moisture  
Dew Point 5 °F    
Average Humidity 81    
Maximum Humidity 86    
Minimum Humidity 72    
Precipitation  
Precipitation 0.03 in - - ()
Sea Level Pressure  
Sea Level Pressure 30.00 in    
Wind  
Wind Speed 3 mph (SE)    
Max Wind Speed 10 mph    
Max Gust Speed -    
Visibility 6 miles    
Events Fog , Snow    
Averages and records for this station are not official NWS values.
T = Trace of Precipitation, MM = Missing Value Source: NWS Daily Summary

Daily Weather History Graph

Daily Weather History Graph

Search for Another Location

Airport:

Trip Planner

Search our weather history database for the weather conditions in past years. The results will help you decide how hot, cold, wet, or windy it might be!

Date:

Astronomy

Jan. 18, 2013 Rise Set
Actual Time 7:27 AM CST 4:38 PM CST
Civil Twilight 6:54 AM CST 5:11 PM CST
Nautical Twilight 6:17 AM CST 5:48 PM CST
Astronomical Twilight 5:42 AM CST 6:24 PM CST
Moon 10:39 AM CST (1/18) No Moon Set
Length of Visible Light 10h 17m
Length of Day
9h 11m
Waxing Crescent, 47% of the Moon is Illuminated
Jan 18
Waxing Crescent
Jan 18
First Quarter
Jan 26
Full
Feb 3
Last Quarter
Feb 10
New

Hourly Weather History & Observations

Time (CST) Temp. Windchill Dew Point Humidity Pressure Visibility Wind Dir Wind Speed Gust Speed Precip Events Conditions
12:54 AM 1.0 °F - -6.0 °F 72% 30.35 in 10.0 mi Calm Calm - N/A   Clear
1:54 AM -0.9 °F - -6.0 °F 79% 30.36 in 10.0 mi Calm Calm - N/A   Clear
2:54 AM 1.0 °F - -5.1 °F 75% 30.35 in 10.0 mi Calm Calm - N/A   Clear
3:54 AM 1.0 °F - -4.0 °F 79% 30.32 in 10.0 mi Calm Calm - N/A   Mostly Cloudy
4:54 AM 3.9 °F - -2.0 °F 76% 30.31 in 10.0 mi Calm Calm - N/A   Overcast
5:54 AM 6.1 °F -0.9 °F -0.9 °F 73% 30.27 in 10.0 mi South 3.5 mph - N/A   Overcast
6:54 AM 6.1 °F -6.8 °F -0.9 °F 73% 30.25 in 10.0 mi South 8.1 mph - N/A   Overcast
7:20 AM 6.8 °F -7.8 °F 1.4 °F 79% 30.15 in 2.0 mi South 10.4 mph - 0.00 in Snow Light Snow
7:27 AM 6.8 °F -6.9 °F 1.4 °F 79% 30.15 in 1.8 mi South 9.2 mph - 0.00 in Snow Light Snow
7:54 AM 6.1 °F -5.6 °F 1.9 °F 83% 30.22 in 1.0 mi SSE 6.9 mph - 0.00 in Snow Light Snow
8:54 AM 7.0 °F -7.5 °F 3.0 °F 84% 30.17 in 1.0 mi SSE 10.4 mph - 0.00 in Snow Light Snow
9:07 AM 6.8 °F -6.9 °F 3.2 °F 85% 30.07 in 0.8 mi SSE 9.2 mph - 0.00 in Snow Light Snow
9:54 AM 8.1 °F -5.3 °F 3.0 °F 80% 30.11 in 0.8 mi SE 9.2 mph - 0.00 in Snow Light Snow
10:26 AM 8.6 °F -4.7 °F 3.2 °F 79% 29.99 in 1.2 mi SSE 9.2 mph - 0.01 in Snow Light Snow
10:45 AM 8.6 °F -2.6 °F 5.0 °F 85% 29.97 in 0.5 mi SE 6.9 mph - 0.01 in Fog , Snow Snow
10:54 AM 9.0 °F -2.2 °F 5.0 °F 84% 30.05 in 0.5 mi SSE 6.9 mph - 0.01 in Fog , Snow Snow
11:24 AM 10.4 °F 2.2 °F 6.8 °F 85% 29.94 in 0.2 mi SSE 4.6 mph - 0.01 in Fog , Snow Snow
11:54 AM 10.0 °F 3.6 °F 6.1 °F 84% 29.99 in 0.5 mi SE 3.5 mph - 0.02 in Fog , Snow Snow
12:06 PM 10.4 °F 2.2 °F 6.8 °F 85% 29.89 in 1.0 mi SE 4.6 mph - 0.00 in Snow Light Snow
12:54 PM 12.0 °F - 7.0 °F 80% 29.93 in 2.0 mi Calm Calm - 0.00 in Snow Light Snow
1:15 PM 12.2 °F 6.1 °F 6.8 °F 79% 29.83 in 3.0 mi ENE 3.5 mph - 0.00 in   Haze
1:54 PM 12.9 °F 3.8 °F 8.1 °F 81% 29.90 in 5.0 mi East 5.8 mph - 0.00 in   Haze
2:54 PM 12.9 °F - 9.0 °F 84% 29.88 in 10.0 mi Calm Calm - N/A   Overcast
3:14 PM 14.0 °F - 8.6 °F 79% 29.79 in 10.0 mi Calm Calm - N/A   Scattered Clouds
3:54 PM 14.0 °F 8.2 °F 9.0 °F 80% 29.85 in 10.0 mi ESE 3.5 mph - N/A   Overcast
4:28 PM 14.0 °F - 10.4 °F 86% 29.76 in 10.0 mi Calm Calm - N/A   Overcast
4:54 PM 15.1 °F - 10.0 °F 80% 29.85 in 10.0 mi Calm Calm - N/A   Overcast
5:04 PM 15.8 °F - 10.4 °F 79% 29.76 in 10.0 mi Calm Calm - N/A   Overcast
5:54 PM 15.1 °F - 10.9 °F 84% 29.83 in 10.0 mi Calm Calm - N/A   Overcast
6:54 PM 15.1 °F 9.4 °F 10.9 °F 84% 29.81 in 10.0 mi NW 3.5 mph - N/A   Overcast
7:54 PM 16.0 °F - 10.9 °F 81% 29.79 in 10.0 mi Calm Calm - N/A   Overcast
10:54 PM 17.1 °F 11.7 °F 12.9 °F 84% 29.77 in 10.0 mi NNW 3.5 mph - N/A   Overcast
11:52 PM 17.6 °F 8.2 °F 12.2 °F 79% 29.69 in 10.0 mi North 6.9 mph - N/A   Overcast
11:54 PM 17.1 °F 8.7 °F 12.0 °F 81% 29.76 in 10.0 mi North 5.8 mph - N/A   Overcast